Weather Service Report


762 
ASUS43 KBIS 270120
RWRBIS

NWR BROADCAST TEXT
NATIONAL WEATHER SERVICE BISMARCK ND
800 PM CDT THU MAR 26 2015

NOTE: "FAIR" INDICATES FEW OR NO CLOUDS BELOW 12,000 FEET WITH NO
SIGNIFICANT WEATHER AND/OR OBSTRUCTIONS TO VISIBILITY.

  
CITY           SKY/WX    TMP DP  RH WIND       PRES   REMARKS
WILLISTON      CLOUDY    41  26  55 E9        30.15S                  
MINOT          PTCLDY    32  20  61 E6        30.22S                  
MINOT AFB      PTCLDY    33  26  74 SE6       30.21S                  
BISMARCK       MOCLDY    33  20  58 E6        30.23S                  
DICKINSON      CLOUDY    34  27  75 E6        30.15S                  
GARRISON         N/A     33  21  61 SE3       30.21S                  
HETTINGER ARPT MOCLDY    36  28  73 E9        30.17S                  
JAMESTOWN      CLEAR     27  12  53 NE7       30.26R WCI  19          
BEACH          CLOUDY    37  32  81 E9        30.14S                  
CARRINGTON     FAIR      27  16  63 NE6       30.28R WCI  20          
CROSBY         FAIR      37  28  70 SE9       30.17S                  
HARVEY         FAIR      27  18  69 E7        30.26R WCI  19          
HAZEN          FAIR      34  21  60 E5        30.22S                  
LINTON         FAIR      32  16  51 NE6       30.23S                  
MANDAN         MOCLDY    36  19  51 SE3       30.23R                  
OAKES            N/A     28  16  59 N10       30.26R WCI  19          
RUGBY          FAIR      28  21  74 E8        30.26R                  
TIOGA          FAIR      34  27  75 SE8       30.20S                  
WATFORD CITY   FAIR      39  27  60 SE8       30.15R                  
$$
  
CITY           SKY/WX    TMP DP  RH WIND       PRES   REMARKS
GRAND FORKS    MOCLDY    26  15  63 N10       30.30R WCI  16          
GRAND FORKS AF CLOUDY    27  15  59 NE12      30.30R WCI  17          
DEVILS LAKE    CLEAR     27  16  63 NE6       30.27S WCI  20          
FARGO          CLEAR     28   9  44 N16       30.28R WCI  16          
CANDO          MOCLDY    27  19  74 E6        30.28S WCI  20          
CAVALIER       FAIR      27  18  69 N8        30.31S WCI  18          
GWINNER        CLEAR     30  12  47 N10         N/A                   
ROLLA          FAIR      27  19  74 E5        30.25F                  
WALHALLA         N/A     27  23  86 NE5       30.32R                  
$$
  
CITY           SKY/WX    TMP DP  RH WIND       PRES   REMARKS
ABERDEEN       CLEAR     32  14  47 NE12      30.25R                  
MOBRIDGE       CLOUDY    37  21  52 NE6       30.19R                  
BUFFALO          N/A     41  31  67 E13       30.07S                  
RAPID CITY     CLOUDY    43  27  53 E9        30.13R                  
GLASGOW        MOCLDY    46  33  60 E16       30.05S                  
SIDNEY         CLOUDY    39  32  75 E7        30.14S                  
WOLF POINT     CLOUDY    45  35  68 E10       30.09F                  
GLENDIVE         N/A     45  32  61 E9        30.11S                  
MILES CITY     CLOUDY    53  30  41 NE10      30.06S                  
BAKER          CLOUDY    43  32  65 SE13      30.12S                  
$$
  
CITY           SKY/WX    TMP DP  RH WIND       PRES   REMARKS
BILLINGS       CLOUDY    61  35  37 NW14G22   30.07S                  
GREAT FALLS    MOCLDY    59  35  40 W23G32    30.09R                  
REGINA         MOCLDY    36  30  80 SE15      30.13F                  
ESTEVAN        CLOUDY    32  25  74 SE10      30.18F                  
$$



763 
ASUS43 KBIS 270120
RWRND 

NORTH DAKOTA REGIONAL WEATHER ROUNDUP
NATIONAL WEATHER SERVICE BISMARCK ND
800 PM CDT THU MAR 26 2015

NOTE: "FAIR" INDICATES FEW OR NO CLOUDS BELOW 12,000 FEET WITH NO
SIGNIFICANT WEATHER AND/OR OBSTRUCTIONS TO VISIBILITY.


NDZ001>003-009>011-017-270200-
NORTHWEST NORTH DAKOTA
  
CITY           SKY/WX    TMP DP  RH WIND       PRES   REMARKS
WILLISTON      CLOUDY    41  26  55 E9        30.15S                  
MINOT          PTCLDY    32  20  61 E6        30.22S                  
MINOT AFB      PTCLDY    33  26  74 SE6       30.21S                  
$$
 
NDZ018>021-031>035-040>046-270200-
SOUTHWEST NORTH DAKOTA
  
CITY           SKY/WX    TMP DP  RH WIND       PRES   REMARKS
BISMARCK       MOCLDY    33  20  58 E6        30.23S                  
DICKINSON      CLOUDY    34  27  75 E6        30.15S                  
GARRISON         N/A     33  21  61 SE3       30.21S                  
HETTINGER ARPT MOCLDY    36  28  73 E9        30.17S                  
$$
 
NDZ004>008-012>016-024-026-027-054-270200-
NORTHEAST NORTH DAKOTA
  
CITY           SKY/WX    TMP DP  RH WIND       PRES   REMARKS
GRAND FORKS    MOCLDY    26  15  63 N10       30.30R WCI  16          
GRND FRKS AFB  CLOUDY    27  15  59 NE12      30.30R WCI  17          
DEVILS LAKE    CLEAR     27  16  63 NE6       30.27S WCI  20          
$$
 
NDZ022-023-025-028>030-036>039-047>053-270200-
SOUTHEAST NORTH DAKOTA
  
CITY           SKY/WX    TMP DP  RH WIND       PRES   REMARKS
FARGO          CLEAR     28   9  44 N16       30.28R WCI  16          
JAMESTOWN      CLEAR     27  12  53 NE7       30.26R WCI  19          
$$ 


Return to Home page


Western Regional Climate Center, wrcc@dri.edu